![]() |
EMODnet Physics ERDDAP
Easier access to scientific data |
log in|
Brought to you by EMODnet Physics |
| Dataset Title: | NDBC - Collection of dew point temperature (DEWT) TimeSeries - IN SITU MultiPointTimeSeriesObservation
|
| Institution: | NDBC (Dataset ID: TS_DEWT_NDBC) |
| Information: | Summary
| License
| FGDC
| ISO 19115
| Metadata
| Background
| Subset
| Data Access Form
| Make a graph
|
| Name | Last modified | Size | Description | |
|---|---|---|---|---|
| Parent Directory | - | - | ||
| PTOA1_TS_DEWT_012015.nc | 11-Dec-2024 18:03 | 429607 | ||
| PTOA1_TS_DEWT_012016.nc | 11-Dec-2024 18:09 | 429616 | ||
| PTOA1_TS_DEWT_012017.nc | 11-Dec-2024 18:15 | 429618 | ||
| PTOA1_TS_DEWT_012018.nc | 11-Dec-2024 18:21 | 429624 | ||
| PTOA1_TS_DEWT_012019.nc | 11-Dec-2024 18:29 | 429611 | ||
| PTOA1_TS_DEWT_012020.nc | 11-Dec-2024 18:35 | 429612 | ||
| PTOA1_TS_DEWT_012021.nc | 11-Dec-2024 18:41 | 429619 | ||
| PTOA1_TS_DEWT_012022.nc | 11-Dec-2024 18:47 | 429612 | ||
| PTOA1_TS_DEWT_012023.nc | 11-Dec-2024 18:53 | 429612 | ||
| PTOA1_TS_DEWT_012025.nc | 19-Feb-2025 06:14 | 429618 | ||
| PTOA1_TS_DEWT_012026.nc | 02-Feb-2026 16:43 | 429832 | ||
| PTOA1_TS_DEWT_022015.nc | 11-Dec-2024 18:04 | 429840 | ||
| PTOA1_TS_DEWT_022016.nc | 11-Dec-2024 18:10 | 429833 | ||
| PTOA1_TS_DEWT_022017.nc | 11-Dec-2024 18:15 | 429814 | ||
| PTOA1_TS_DEWT_022018.nc | 11-Dec-2024 18:22 | 429837 | ||
| PTOA1_TS_DEWT_022019.nc | 11-Dec-2024 18:30 | 429835 | ||
| PTOA1_TS_DEWT_022020.nc | 11-Dec-2024 18:36 | 429838 | ||
| PTOA1_TS_DEWT_022021.nc | 11-Dec-2024 18:42 | 429832 | ||
| PTOA1_TS_DEWT_022022.nc | 11-Dec-2024 18:48 | 427888 | ||
| PTOA1_TS_DEWT_022023.nc | 11-Dec-2024 18:53 | 429836 | ||
| PTOA1_TS_DEWT_022025.nc | 01-Mar-2025 06:05 | 429834 | ||
| PTOA1_TS_DEWT_022026.nc | 01-Mar-2026 04:51 | 429840 | ||
| PTOA1_TS_DEWT_032015.nc | 11-Dec-2024 18:04 | 429836 | ||
| PTOA1_TS_DEWT_032016.nc | 11-Dec-2024 18:10 | 429834 | ||
| PTOA1_TS_DEWT_032017.nc | 11-Dec-2024 18:16 | 429842 | ||
| PTOA1_TS_DEWT_032018.nc | 11-Dec-2024 18:23 | 429813 | ||
| PTOA1_TS_DEWT_032019.nc | 11-Dec-2024 18:30 | 429836 | ||
| PTOA1_TS_DEWT_032020.nc | 11-Dec-2024 18:36 | 427468 | ||
| PTOA1_TS_DEWT_032021.nc | 11-Dec-2024 18:42 | 429816 | ||
| PTOA1_TS_DEWT_032022.nc | 11-Dec-2024 18:48 | 429840 | ||
| PTOA1_TS_DEWT_032023.nc | 11-Dec-2024 18:54 | 429273 | ||
| PTOA1_TS_DEWT_032025.nc | 02-Apr-2025 03:57 | 429285 | ||
| PTOA1_TS_DEWT_032026.nc | 25-Mar-2026 07:04 | 429279 | ||
| PTOA1_TS_DEWT_042015.nc | 11-Dec-2024 18:05 | 429289 | ||
| PTOA1_TS_DEWT_042016.nc | 11-Dec-2024 18:11 | 429241 | ||
| PTOA1_TS_DEWT_042017.nc | 11-Dec-2024 18:17 | 429289 | ||
| PTOA1_TS_DEWT_042018.nc | 11-Dec-2024 18:23 | 428831 | ||
| PTOA1_TS_DEWT_042019.nc | 11-Dec-2024 18:31 | 427574 | ||
| PTOA1_TS_DEWT_042020.nc | 11-Dec-2024 18:37 | 429291 | ||
| PTOA1_TS_DEWT_042021.nc | 11-Dec-2024 18:43 | 429297 | ||
| PTOA1_TS_DEWT_042022.nc | 11-Dec-2024 18:49 | 429285 | ||
| PTOA1_TS_DEWT_042023.nc | 11-Dec-2024 18:54 | 429287 | ||
| PTOA1_TS_DEWT_042025.nc | 01-May-2025 06:11 | 429296 | ||
| PTOA1_TS_DEWT_052015.nc | 11-Dec-2024 18:05 | 429291 | ||
| PTOA1_TS_DEWT_052016.nc | 11-Dec-2024 18:11 | 429289 | ||
| PTOA1_TS_DEWT_052017.nc | 11-Dec-2024 18:17 | 429290 | ||
| PTOA1_TS_DEWT_052018.nc | 11-Dec-2024 18:24 | 429289 | ||
| PTOA1_TS_DEWT_052019.nc | 11-Dec-2024 18:31 | 429283 | ||
| PTOA1_TS_DEWT_052020.nc | 11-Dec-2024 18:37 | 429493 | ||
| PTOA1_TS_DEWT_052021.nc | 11-Dec-2024 18:43 | 429347 | ||
| PTOA1_TS_DEWT_052022.nc | 11-Dec-2024 18:49 | 429497 | ||
| PTOA1_TS_DEWT_052023.nc | 11-Dec-2024 18:55 | 429493 | ||
| PTOA1_TS_DEWT_052025.nc | 01-Jun-2025 09:35 | 429496 | ||
| PTOA1_TS_DEWT_062015.nc | 11-Dec-2024 18:06 | 429496 | ||
| PTOA1_TS_DEWT_062016.nc | 11-Dec-2024 18:12 | 429491 | ||
| PTOA1_TS_DEWT_062017.nc | 11-Dec-2024 18:18 | 429496 | ||
| PTOA1_TS_DEWT_062018.nc | 11-Dec-2024 18:25 | 428555 | ||
| PTOA1_TS_DEWT_062019.nc | 11-Dec-2024 18:32 | 429493 | ||
| PTOA1_TS_DEWT_062020.nc | 11-Dec-2024 18:38 | 429499 | ||
| PTOA1_TS_DEWT_062021.nc | 11-Dec-2024 18:43 | 429489 | ||
| PTOA1_TS_DEWT_062022.nc | 11-Dec-2024 18:49 | 429495 | ||
| PTOA1_TS_DEWT_062023.nc | 11-Dec-2024 18:55 | 429496 | ||
| PTOA1_TS_DEWT_062025.nc | 01-Jul-2025 07:14 | 418799 | ||
| PTOA1_TS_DEWT_072015.nc | 11-Dec-2024 18:06 | 421048 | ||
| PTOA1_TS_DEWT_072016.nc | 11-Dec-2024 18:12 | 429494 | ||
| PTOA1_TS_DEWT_072017.nc | 11-Dec-2024 18:18 | 429491 | ||
| PTOA1_TS_DEWT_072018.nc | 11-Dec-2024 18:25 | 429497 | ||
| PTOA1_TS_DEWT_072019.nc | 11-Dec-2024 18:32 | 429492 | ||
| PTOA1_TS_DEWT_072020.nc | 11-Dec-2024 18:38 | 423677 | ||
| PTOA1_TS_DEWT_072021.nc | 11-Dec-2024 18:44 | 419973 | ||
| PTOA1_TS_DEWT_072022.nc | 11-Dec-2024 18:50 | 429053 | ||
| PTOA1_TS_DEWT_072023.nc | 11-Dec-2024 18:56 | 429606 | ||
| PTOA1_TS_DEWT_072025.nc | 01-Aug-2025 07:40 | 429612 | ||
| PTOA1_TS_DEWT_082015.nc | 11-Dec-2024 18:07 | 429610 | ||
| PTOA1_TS_DEWT_082016.nc | 11-Dec-2024 18:13 | 429620 | ||
| PTOA1_TS_DEWT_082017.nc | 11-Dec-2024 18:19 | 429611 | ||
| PTOA1_TS_DEWT_082018.nc | 11-Dec-2024 18:26 | 429430 | ||
| PTOA1_TS_DEWT_082019.nc | 11-Dec-2024 18:33 | 429613 | ||
| PTOA1_TS_DEWT_082020.nc | 11-Dec-2024 18:39 | 429612 | ||
| PTOA1_TS_DEWT_082021.nc | 11-Dec-2024 18:44 | 429625 | ||
| PTOA1_TS_DEWT_082022.nc | 11-Dec-2024 18:50 | 429615 | ||
| PTOA1_TS_DEWT_082023.nc | 11-Dec-2024 18:56 | 429295 | ||
| PTOA1_TS_DEWT_082025.nc | 01-Sep-2025 08:54 | 429618 | ||
| PTOA1_TS_DEWT_092015.nc | 11-Dec-2024 18:07 | 429612 | ||
| PTOA1_TS_DEWT_092016.nc | 11-Dec-2024 18:13 | 429611 | ||
| PTOA1_TS_DEWT_092017.nc | 11-Dec-2024 18:19 | 429619 | ||
| PTOA1_TS_DEWT_092018.nc | 11-Dec-2024 18:27 | 429619 | ||
| PTOA1_TS_DEWT_092019.nc | 11-Dec-2024 18:34 | 429837 | ||
| PTOA1_TS_DEWT_092020.nc | 11-Dec-2024 18:39 | 429835 | ||
| PTOA1_TS_DEWT_092021.nc | 11-Dec-2024 18:45 | 429835 | ||
| PTOA1_TS_DEWT_092022.nc | 11-Dec-2024 18:51 | 429819 | ||
| PTOA1_TS_DEWT_092023.nc | 11-Dec-2024 18:57 | 429834 | ||
| PTOA1_TS_DEWT_092025.nc | 01-Oct-2025 09:21 | 429836 | ||
| PTOA1_TS_DEWT_102015.nc | 11-Dec-2024 18:08 | 429840 | ||
| PTOA1_TS_DEWT_102016.nc | 11-Dec-2024 18:14 | 429835 | ||
| PTOA1_TS_DEWT_102017.nc | 11-Dec-2024 18:19 | 421987 | ||
| PTOA1_TS_DEWT_102018.nc | 11-Dec-2024 18:27 | 429832 | ||
| PTOA1_TS_DEWT_102019.nc | 11-Dec-2024 18:34 | 429838 | ||
| PTOA1_TS_DEWT_102020.nc | 11-Dec-2024 18:40 | 429835 | ||
| PTOA1_TS_DEWT_102021.nc | 11-Dec-2024 18:46 | 429834 | ||
| PTOA1_TS_DEWT_102022.nc | 11-Dec-2024 18:51 | 429821 | ||
| PTOA1_TS_DEWT_102023.nc | 11-Dec-2024 18:57 | 429838 | ||
| PTOA1_TS_DEWT_102024.nc | 12-Jan-2025 23:05 | 429842 | ||
| PTOA1_TS_DEWT_102025.nc | 01-Nov-2025 08:50 | 429834 | ||
| PTOA1_TS_DEWT_112015.nc | 11-Dec-2024 18:08 | 429838 | ||
| PTOA1_TS_DEWT_112016.nc | 11-Dec-2024 18:14 | 429832 | ||
| PTOA1_TS_DEWT_112017.nc | 11-Dec-2024 18:20 | 429268 | ||
| PTOA1_TS_DEWT_112018.nc | 11-Dec-2024 18:28 | 429257 | ||
| PTOA1_TS_DEWT_112019.nc | 11-Dec-2024 18:35 | 425382 | ||
| PTOA1_TS_DEWT_112020.nc | 11-Dec-2024 18:40 | 429288 | ||
| PTOA1_TS_DEWT_112021.nc | 11-Dec-2024 18:46 | 429290 | ||
| PTOA1_TS_DEWT_112022.nc | 11-Dec-2024 18:52 | 429265 | ||
| PTOA1_TS_DEWT_112023.nc | 11-Dec-2024 18:57 | 429248 | ||
| PTOA1_TS_DEWT_112024.nc | 17-Jan-2025 19:53 | 429292 | ||
| PTOA1_TS_DEWT_112025.nc | 02-Dec-2025 12:28 | 429283 | ||
| PTOA1_TS_DEWT_122015.nc | 11-Dec-2024 18:08 | 429252 | ||
| PTOA1_TS_DEWT_122016.nc | 11-Dec-2024 18:15 | 429281 | ||
| PTOA1_TS_DEWT_122017.nc | 11-Dec-2024 18:21 | 429291 | ||
| PTOA1_TS_DEWT_122018.nc | 11-Dec-2024 18:28 | 429298 | ||
| PTOA1_TS_DEWT_122019.nc | 11-Dec-2024 18:35 | 429293 | ||
| PTOA1_TS_DEWT_122020.nc | 11-Dec-2024 18:41 | 429286 | ||
| PTOA1_TS_DEWT_122021.nc | 11-Dec-2024 18:47 | 429294 | ||
| PTOA1_TS_DEWT_122022.nc | 11-Dec-2024 18:52 | 429294 | ||
| PTOA1_TS_DEWT_122023.nc | 11-Dec-2024 18:58 | 429281 | ||
| PTOA1_TS_DEWT_122024.nc | 22-Jan-2025 19:51 | 429289 | ||
| PTOA1_TS_DEWT_122025.nc | 01-Jan-2026 05:05 | 429491 | ||